Carbondale, IL

2:28 AM CDT on August 24, 2017 (GMT -0500)
Southern Illinois

Weather History for KMDH - January, 2013

Change the Weather History Date:

Tuesday, January 22, 2013

  Actual Average Record
Temperature  
Mean Temperature 20 °F -  
Max Temperature 23 °F 41 °F 66 °F (1967)
Min Temperature 17 °F 24 °F -19 °F (1984)
Degree Days  
Heating Degree Days 45    
Moisture  
Dew Point 0 °F    
Average Humidity 43    
Maximum Humidity 68    
Minimum Humidity 35    
Precipitation  
Precipitation 0.00 in - - ()
Sea Level Pressure  
Sea Level Pressure 30.44 in    
Wind  
Wind Speed 5 mph (NNE)    
Max Wind Speed 8 mph    
Max Gust Speed 22 mph    
Visibility 10 miles    
Events      
Averages and records for this station are not official NWS values.
T = Trace of Precipitation, MM = Missing Value Source: NWS Daily Summary

Daily Weather History Graph

Daily Weather History Graph

Search for Another Location

Airport or City:

Trip Planner

Search our weather history database for the weather conditions in past years. The results will help you decide how hot, cold, wet, or windy it might be!

Date:

Astronomy

Jan. 22, 2013 Rise Set
Actual Time 7:07 AM CST 5:09 PM CST
Civil Twilight 6:39 AM CST 5:38 PM CST
Nautical Twilight 6:07 AM CST 6:09 PM CST
Astronomical Twilight 5:36 AM CST 6:41 PM CST
Moon 1:33 PM CST (1/22) 3:28 AM CST (1/22)
Length of Visible Light 10h 58m
Length of Day
10h 01m
Waxing Gibbous, 83% of the Moon is Illuminated
Jan 22
Waxing Gibbous
Jan 26
Full
Feb 3
Last Quarter
Feb 10
New
Feb 17
First Quarter

Hourly Weather History & Observations

Time (CST) Temp. Windchill Dew Point Humidity Pressure Visibility Wind Dir Wind Speed Gust Speed Precip Events Conditions
12:52 AM 18.0 °F 8.7 °F 3.0 °F 52% 30.40 in 10.0 mi North 6.9 mph - N/A   Clear
1:52 AM 18.0 °F 8.7 °F -0.0 °F 45% 30.42 in 10.0 mi North 6.9 mph - N/A   Clear
2:52 AM 18.0 °F 9.8 °F -0.0 °F 45% 30.42 in 10.0 mi North 5.8 mph - N/A   Partly Cloudy
3:52 AM 18.0 °F 11.1 °F 1.0 °F 48% 30.42 in 10.0 mi North 4.6 mph - N/A   Mostly Cloudy
4:52 AM 18.0 °F 8.7 °F -2.9 °F 40% 30.43 in 10.0 mi North 6.9 mph - N/A   Clear
5:52 AM 18.0 °F 7.7 °F -2.9 °F 40% 30.45 in 10.0 mi North 8.1 mph - N/A   Clear
6:52 AM 17.1 °F 8.7 °F -2.9 °F 41% 30.46 in 10.0 mi NNE 5.8 mph - N/A   Clear
7:52 AM 17.1 °F 11.7 °F -2.0 °F 43% 30.47 in 10.0 mi North 3.5 mph - N/A   Clear
8:52 AM 18.0 °F 11.1 °F -2.9 °F 40% 30.49 in 10.0 mi NNE 4.6 mph - N/A   Overcast
9:52 AM 19.0 °F 13.9 °F -2.9 °F 38% 30.51 in 10.0 mi NW 3.5 mph - N/A   Scattered Clouds
10:52 AM 19.9 °F 13.4 °F -2.0 °F 38% 30.50 in 10.0 mi SW 4.6 mph 21.9 mph N/A   Overcast
11:52 AM 19.9 °F 11.1 °F -2.0 °F 38% 30.49 in 10.0 mi North 6.9 mph - N/A   Overcast
12:52 PM 21.0 °F 12.4 °F -2.0 °F 36% 30.45 in 10.0 mi North 6.9 mph - N/A   Overcast
1:52 PM 21.9 °F - -2.0 °F 35% 30.45 in 10.0 mi Calm Calm - N/A   Overcast
2:52 PM 21.9 °F - -0.0 °F 38% 30.43 in 10.0 mi Calm Calm - N/A   Overcast
3:52 PM 23.0 °F - -0.0 °F 37% 30.44 in 10.0 mi Calm Calm - N/A   Overcast
4:52 PM 21.9 °F - -0.0 °F 38% 30.43 in 10.0 mi Calm Calm - N/A   Overcast
5:52 PM 21.9 °F - 1.0 °F 40% 30.42 in 10.0 mi Calm Calm - N/A   Overcast
6:52 PM 21.9 °F 17.2 °F 1.9 °F 42% 30.41 in 10.0 mi East 3.5 mph - N/A   Overcast
7:52 PM 23.0 °F - 3.0 °F 42% 30.41 in 10.0 mi Calm Calm - N/A   Overcast
8:52 PM 21.9 °F - 3.9 °F 46% 30.41 in 10.0 mi Calm Calm - N/A   Overcast
9:52 PM 23.0 °F 18.4 °F 5.0 °F 46% 30.41 in 10.0 mi East 3.5 mph - N/A   Overcast
10:52 PM 21.9 °F - 6.1 °F 51% 30.42 in 10.0 mi Calm Calm - N/A   Mostly Cloudy
11:52 PM 19.9 °F 14.9 °F 10.9 °F 68% 30.41 in 10.0 mi ENE 3.5 mph - N/A   Clear